EN

Hourly Weather Kyyashkivs'ke

Today, 5 August, Thursday

Time Temperature Precipitation Wind Pressure Humidity
00:00 +19°C° 0 mm 2 mps 748 mmHg 53%
01:00 +19°C° 0 mm 3 mps 747 mmHg 53%
02:00 +18°C° 0 mm 3 mps 747 mmHg 54%
03:00 +18°C° 0 mm 3 mps 747 mmHg 54%
04:00 +18°C° 0 mm 3 mps 747 mmHg 54%
05:00 +18°C° 0 mm 3 mps 746 mmHg 54%
06:00 +20°C° 0 mm 3 mps 746 mmHg 52%
07:00 +22°C° 0 mm 4 mps 746 mmHg 49%
08:00 +26°C° 0 mm 4 mps 746 mmHg 43%
09:00 +28°C° 0 mm 5 mps 746 mmHg 40%
10:00 +29°C° 0 mm 5 mps 746 mmHg 37%
11:00 +32°C° 0 mm 5 mps 746 mmHg 34%
12:00 +32°C° 0 mm 5 mps 745 mmHg 35%
13:00 +32°C° 0 mm 5 mps 745 mmHg 35%
14:00 +30°C° 0 mm 4 mps 745 mmHg 38%
15:00 +30°C° 0.1 mm 4 mps 745 mmHg 40%
16:00 +30°C° 0.1 mm 4 mps 744 mmHg 41%
17:00 +29°C° 0.1 mm 4 mps 744 mmHg 43%
18:00 +27°C° 0.2 mm 3 mps 744 mmHg 53%
19:00 +25°C° 0.2 mm 2 mps 744 mmHg 62%
20:00 +23°C° 0.2 mm 2 mps 744 mmHg 72%
21:00 +21°C° 0 mm 2 mps 744 mmHg 73%
22:00 +21°C° 0 mm 3 mps 744 mmHg 74%
23:00 +20°C° 0 mm 3 mps 743 mmHg 74%

Tomorrow, 6 August, Friday

Time Temperature Precipitation Wind Pressure Humidity
00:00 +20°C° 0 mm 3 mps 743 mmHg 72%
01:00 +20°C° 0 mm 3 mps 743 mmHg 70%
02:00 +19°C° 0 mm 4 mps 742 mmHg 68%
03:00 +19°C° 0 mm 4 mps 742 mmHg 66%
04:00 +19°C° 0 mm 4 mps 742 mmHg 65%
05:00 +19°C° 0 mm 4 mps 742 mmHg 63%
06:00 +22°C° 0.1 mm 4 mps 742 mmHg 56%
07:00 +25°C° 0.1 mm 4 mps 742 mmHg 48%
08:00 +28°C° 0.1 mm 5 mps 742 mmHg 40%
09:00 +30°C° 0 mm 5 mps 741 mmHg 35%
10:00 +33°C° 0 mm 5 mps 741 mmHg 31%
11:00 +35°C° 0 mm 5 mps 741 mmHg 26%
12:00 +36°C° 0 mm 5 mps 740 mmHg 24%
13:00 +37°C° 0 mm 5 mps 740 mmHg 23%
14:00 +39°C° 0 mm 6 mps 739 mmHg 21%
15:00 +38°C° 0 mm 6 mps 739 mmHg 21%
16:00 +38°C° 0 mm 6 mps 738 mmHg 21%
17:00 +38°C° 0 mm 6 mps 738 mmHg 21%
18:00 +33°C° 0.1 mm 5 mps 738 mmHg 34%
19:00 +29°C° 0.1 mm 4 mps 739 mmHg 47%
20:00 +25°C° 0.1 mm 4 mps 739 mmHg 60%
21:00 +22°C° 1.5 mm 4 mps 739 mmHg 70%
22:00 +21°C° 1.5 mm 4 mps 740 mmHg 81%
23:00 +19°C° 1.5 mm 4 mps 740 mmHg 91%

Day after tomorrow, 7 August, Saturday

Time Temperature Precipitation Wind Pressure Humidity
00:00 +19°C° 1 mm 4 mps 740 mmHg 92%
01:00 +19°C° 1 mm 3 mps 740 mmHg 93%
02:00 +19°C° 1 mm 3 mps 740 mmHg 94%
03:00 +19°C° 0.3 mm 3 mps 740 mmHg 94%
04:00 +19°C° 0.3 mm 3 mps 740 mmHg 94%
05:00 +18°C° 0.3 mm 3 mps 740 mmHg 94%
06:00 +20°C° 0 mm 3 mps 741 mmHg 89%
07:00 +21°C° 0 mm 3 mps 741 mmHg 83%
08:00 +22°C° 0 mm 3 mps 741 mmHg 78%
09:00 +23°C° 0 mm 4 mps 742 mmHg 71%
10:00 +26°C° 0 mm 4 mps 742 mmHg 63%
11:00 +27°C° 0 mm 4 mps 742 mmHg 56%
12:00 +28°C° 0 mm 4 mps 742 mmHg 47%
13:00 +29°C° 0 mm 4 mps 742 mmHg 39%
14:00 +30°C° 0 mm 4 mps 742 mmHg 31%
15:00 +30°C° 0 mm 4 mps 743 mmHg 31%
16:00 +29°C° 0 mm 4 mps 743 mmHg 30%
17:00 +29°C° 0 mm 4 mps 743 mmHg 29%
18:00 +27°C° 0 mm 4 mps 743 mmHg 34%
19:00 +23°C° 0 mm 4 mps 744 mmHg 38%
20:00 +21°C° 0 mm 4 mps 744 mmHg 43%
21:00 +21°C° 0 mm 4 mps 744 mmHg 45%
22:00 +21°C° 0 mm 3 mps 745 mmHg 47%
23:00 +20°C° 0 mm 3 mps 745 mmHg 49%

8 August, Sunday

Time Temperature Precipitation Wind Pressure Humidity
00:00 +19°C° 0 mm 3 mps 745 mmHg 53%
01:00 +18°C° 0 mm 3 mps 745 mmHg 57%
02:00 +18°C° 0 mm 2 mps 746 mmHg 61%
03:00 +17°C° 0 mm 2 mps 746 mmHg 62%
04:00 +17°C° 0 mm 3 mps 746 mmHg 64%
05:00 +17°C° 0 mm 3 mps 746 mmHg 65%
06:00 +19°C° 0 mm 3 mps 746 mmHg 58%
07:00 +21°C° 0 mm 3 mps 747 mmHg 51%
08:00 +25°C° 0 mm 3 mps 747 mmHg 44%
09:00 +26°C° 0 mm 3 mps 747 mmHg 40%
10:00 +28°C° 0 mm 3 mps 747 mmHg 36%
11:00 +29°C° 0 mm 3 mps 747 mmHg 33%
12:00 +30°C° 0 mm 3 mps 747 mmHg 31%
13:00 +31°C° 0 mm 3 mps 747 mmHg 29%
14:00 +31°C° 0 mm 3 mps 747 mmHg 28%
15:00 +31°C° 0 mm 3 mps 747 mmHg 28%
16:00 +31°C° 0 mm 3 mps 747 mmHg 28%
17:00 +31°C° 0 mm 3 mps 747 mmHg 29%
18:00 +28°C° 0 mm 3 mps 747 mmHg 34%
19:00 +26°C° 0 mm 3 mps 747 mmHg 38%
20:00 +24°C° 0 mm 3 mps 747 mmHg 43%
21:00 +22°C° 0 mm 3 mps 748 mmHg 48%
22:00 +21°C° 0 mm 2 mps 748 mmHg 53%
23:00 +20°C° 0 mm 2 mps 748 mmHg 58%

9 August, Monday

Time Temperature Precipitation Wind Pressure Humidity
00:00 +19°C° 0 mm 2 mps 748 mmHg 61%
01:00 +19°C° 0 mm 2 mps 748 mmHg 65%
02:00 +18°C° 0 mm 2 mps 748 mmHg 69%
03:00 +18°C° 0 mm 2 mps 748 mmHg 71%
04:00 +18°C° 0 mm 2 mps 748 mmHg 72%
05:00 +18°C° 0 mm 2 mps 748 mmHg 74%
06:00 +20°C° 0 mm 3 mps 748 mmHg 66%
07:00 +24°C° 0 mm 3 mps 748 mmHg 58%
08:00 +26°C° 0 mm 3 mps 748 mmHg 51%
09:00 +28°C° 0 mm 3 mps 748 mmHg 45%
10:00 +30°C° 0 mm 3 mps 748 mmHg 38%
11:00 +31°C° 0 mm 3 mps 748 mmHg 32%
12:00 +33°C° 0 mm 3 mps 748 mmHg 30%
13:00 +34°C° 0 mm 3 mps 748 mmHg 27%
14:00 +34°C° 0 mm 4 mps 748 mmHg 24%
15:00 +34°C° 0 mm 4 mps 747 mmHg 24%
16:00 +34°C° 0 mm 4 mps 747 mmHg 24%
17:00 +33°C° 0 mm 4 mps 747 mmHg 24%
18:00 +30°C° 0 mm 4 mps 747 mmHg 29%
19:00 +28°C° 0 mm 3 mps 747 mmHg 35%
20:00 +25°C° 0 mm 3 mps 747 mmHg 40%
21:00 +24°C° 0 mm 3 mps 747 mmHg 46%
22:00 +23°C° 0 mm 2 mps 747 mmHg 52%
23:00 +21°C° 0 mm 2 mps 747 mmHg 58%

10 August, Tuesday

Time Temperature Precipitation Wind Pressure Humidity
00:00 +21°C° 0 mm 2 mps 748 mmHg 60%
01:00 +20°C° 0 mm 2 mps 748 mmHg 62%
02:00 +21°C° 0 mm 1 mps 748 mmHg 64%
03:00 +20°C° 0 mm 2 mps 748 mmHg 65%
04:00 +19°C° 0 mm 2 mps 747 mmHg 66%
05:00 +19°C° 0 mm 2 mps 747 mmHg 68%
06:00 +23°C° 0 mm 2 mps 747 mmHg 60%
07:00 +25°C° 0 mm 2 mps 747 mmHg 53%
08:00 +28°C° 0 mm 2 mps 748 mmHg 45%
09:00 +29°C° 0 mm 2 mps 747 mmHg 41%
10:00 +31°C° 0 mm 3 mps 747 mmHg 36%
11:00 +33°C° 0 mm 3 mps 747 mmHg 31%
12:00 +34°C° 0 mm 3 mps 746 mmHg 29%
13:00 +35°C° 0 mm 3 mps 746 mmHg 28%
14:00 +35°C° 0 mm 3 mps 746 mmHg 26%
15:00 +35°C° 0 mm 3 mps 746 mmHg 26%
16:00 +35°C° 0 mm 3 mps 745 mmHg 27%
17:00 +35°C° 0 mm 3 mps 745 mmHg 27%
18:00 +31°C° 0 mm 3 mps 745 mmHg 33%
19:00 +29°C° 0 mm 3 mps 745 mmHg 38%
20:00 +27°C° 0 mm 3 mps 745 mmHg 44%
21:00 +26°C° 0 mm 3 mps 745 mmHg 47%
22:00 +25°C° 0 mm 3 mps 745 mmHg 51%
23:00 +24°C° 0 mm 2 mps 745 mmHg 54%
Show more